Location: Glen Avon
(34.0117°N, 117.4848°W)
Time: 19:41:23
(UTC+00:00)

Cosmos 2208 Rocket - Pass Details

Date: 01 August 2021
Orbit: 755 x 805 km, 74.0° (Epoch: 20 September)

Event Time Altitude Azimuth Distance (km) Brightness Sun altitude
Rises 11:58:02 0° 342° (NNW) 3,230 7.4 -12.6°
Reaches altitude 10° 12:00:25 10° 342° (NNW) 2,295 6.6 -12.1°
Maximum altitude 12:05:37 87° 256° (WSW) 761 4.0 -11.2°
Drops below altitude 10° 12:10:46 10° 166° (SSE) 2,270 6.3 -10.3°
Sets 12:13:07 0° 166° (SSE) 3,191 7.1 -9.9°
